RH
36 34 32 29 26 24 23 22 21 20 19 19 19 18 16 15 13 12 12 11 11 10 9 8 8 8 9 13 23 32 29 26 29 33 33 31 30 31 29 24 22 13 11
39 37 35 32 30 28 26 26 25 24 24 22 20 19 19 19 17 15 14 13 12 11 10 9 9 9 12 19 28 33 28 20 21 27 30 28 26 30 29 24 21 15 11
44 43 41 38 36 34 33 30 29 29 26 24 22 22 21 22 20 17 17 15 14 12 12 11 12 12 17 24 30 33 29 18 13 19 28 26 26 28 27 24 18 13 12
49 47 46 45 42 40 38 36 34 34 32 29 27 25 23 23 21 20 18 17 16 16 15 14 15 18 24 29 34 36 29 19 14 16 24 26 27 26 24 17 12 10 10
52 52 52 51 48 44 41 40 38 37 37 34 32 30 27 25 24 22 19 19 19 18 17 16 22 27 32 36 39 38 28 17 13 19 25 26 28 22 16 11 10 8 6
61 56 54 53 53 51 47 44 42 41 40 38 38 35 32 30 29 26 23 24 22 21 20 25 31 34 35 39 41 35 23 15 12 17 23 26 27 20 10 8 10 6 5
94 71 61 55 52 52 51 48 46 45 42 41 40 40 37 35 33 32 29 27 25 22 25 34 36 36 36 39 37 30 22 11 9 16 20 27 27 17 12 10 8 5 6
81 96 98 80 63 55 52 49 47 46 44 43 41 40 38 36 35 34 33 30 29 28 31 36 37 36 35 36 32 23 17 9 8 14 17 26 28 18 19 14 10 5 7
62 62 63 73 94 97 89 72 62 57 51 47 45 42 40 38 38 37 36 34 32 32 35 40 40 36 35 30 29 20 15 10 9 9 12 22 28 28 26 26 19 16 12
63 66 66 63 58 59 63 72 79 79 74 62 52 46 43 40 40 39 37 37 40 42 44 47 42 36 28 24 21 20 14 11 9 8 8 13 17 22 26 23 19 12 13
43 48 61 68 67 68 67 66 62 58 56 56 60 63 62 59 58 57 55 53 50 47 43 38 33 29 22 15 14 14 14 11 11 9 9 8 10 11 13 15 16 16 13
90 82 71 66 70 67 63 59 56 55 52 50 48 45 42 39 35 33 30 25 21 18 16 15 14 12 12 11 10 10 10 12 11 10 10 10 9 9 10 10 10 9 11
82 89 94 84 79 71 61 49 37 36 33 29 25 23 22 20 19 18 17 15 14 13 13 12 12 11 11 10 10 10 10 10 11 11 11 10 10 10 10 10 10 10 10
95 100 100 96 93 100 88 72 56 50 49 41 34 29 27 24 22 20 18 17 16 15 14 13 12 12 11 11 10 10 10 10 10 10 11 11 11 11 11 11 11 12 11
99 96 89 96 88 88 100 100 100 81 64 55 48 42 38 31 26 23 20 18 17 16 15 14 13 12 11 10 10 10 10 10 10 10 10 10 11 11 12 12 12 12 13
100 98 87 82 96 98 100 99 83 75 73 67 62 51 39 33 28 24 22 19 18 16 15 14 13 13 13 13 12 11 11 11 10 10 10 10 10 11 12 12 12 14 15
100 91 76 57 69 79 76 68 64 81 71 58 49 50 54 47 41 34 30 26 24 22 20 19 18 17 17 17 16 19 14 13 13 12 12 12 13 14 15 16 18 18 18
68 75 75 83 84 71 77 92 100 96 82 60 50 55 54 40 32 30 28 28 26 24 20 19 22 31 39 91 48 57 30 41 41 40 35 26 25 25 25 25 25 24 22
98 82 59 46 63 75 66 68 87 89 92 70 60 58 61 49 57 50 37 35 27 31 33 36 36 65 85 61 67 100 100 100 100 100 88 72 64 55 48 42 36 34 29
100 100 99 77 52 64 70 66 68 80 87 75 58 47 48 59 67 61 50 33 37 37 43 54 88 100 100 100 100 100 100 100 100 100 100 100 96 93 74 88 66 63 61
98 100 100 100 100 90 67 64 60 55 87 100 86 60 68 76 88 65 60 47 37 26 48 98 100 100 100 100 100 97 100 100 99 100 100 82 88 86 89 100 100 86 100
47 68 87 96 97 100 100 100 82 66 55 55 60 60 61 62 86 88 82 61 44 37 30 47 72 74 97 100 96 86 89 87 85 97 100 100 96 95 96 95 97 95 100
72 63 44 42 56 79 94 99 100 100 100 100 94 90 96 100 94 96 89 67 52 38 34 35 42 61 68 45 29 28 43 84 97 92 90 91 84 85 69 76 67 75 56
56 70 72 69 59 44 43 62 82 97 100 100 100 100 100 100 100 100 98 66 49 56 57 68 68 50 38 32 30 28 26 54 93 62 71 89 85 57 50 46 43 45 47
38 37 42 52 63 64 59 54 45 38 51 82 98 100 100 100 100 100 100 100 100 81 62 73 78 69 59 50 52 34 32 37 69 88 99 100 95 69 57 45 52 65 96
46 46 42 36 34 37 48 59 57 54 49 39 34 54 77 94 91 90 96 100 99 89 72 84 92 85 75 70 70 54 50 42 43 59 98 100 100 86 81 53 50 68 100
Wind_Speed
65 64 63 62 60 59 57 56 55 54 52 51 49 49 48 47 47 46 44 44 43 43 42 42 41 40 39 38 38 37 37 36 34 32 35 36 35 35 33 34 34 34 34
67 66 65 63 63 62 61 59 58 56 55 54 53 52 51 49 48 47 46 46 45 45 44 43 42 41 40 39 38 38 37 37 35 32 34 35 34 34 34 33 34 35 35
70 68 67 66 65 63 62 61 60 59 59 57 56 54 53 51 51 50 49 47 46 46 45 44 42 43 42 41 40 39 38 38 36 34 33 34 34 33 33 33 34 35 34
71 70 69 69 68 67 66 65 63 61 60 59 58 57 55 54 53 52 51 50 49 48 47 45 44 44 43 43 43 41 40 40 39 36 34 32 33 34 33 34 35 35 35
72 72 71 71 70 69 69 67 66 64 62 62 61 59 58 57 56 56 55 53 51 50 49 47 46 45 45 45 45 43 42 41 40 38 35 34 32 34 35 35 34 34 33
73 74 74 74 73 72 71 70 68 67 66 65 64 63 62 60 59 58 57 55 54 51 50 48 48 47 47 47 46 46 44 41 41 40 37 35 34 35 35 36 34 33 30
77 75 75 75 74 74 73 71 70 69 69 68 67 65 64 62 61 60 59 58 57 54 51 51 50 49 48 47 47 47 45 43 41 40 38 36 36 37 37 35 35 33 32
76 77 79 78 76 74 73 73 72 72 72 71 70 69 67 66 65 63 61 59 58 57 54 54 53 52 50 49 48 47 46 44 42 42 41 38 36 37 37 35 35 34 34
77 76 75 76 77 78 78 76 74 74 74 73 72 70 70 69 67 66 64 63 61 59 58 58 57 54 53 52 50 48 47 45 44 43 43 41 39 38 39 37 34 35 36
79 79 77 74 74 74 74 75 76 79 81 79 77 75 73 72 71 69 69 68 67 67 65 62 59 57 55 54 52 51 50 47 47 45 44 43 41 40 40 40 37 36 40
79 78 77 78 78 76 76 75 76 77 77 77 78 78 78 77 76 74 73 71 67 65 63 61 60 60 59 57 56 55 53 52 50 49 47 46 44 42 41 42 41 41 41
72 74 76 77 76 76 77 78 80 80 79 79 78 77 76 75 74 72 71 69 68 65 64 63 62 61 61 60 59 58 57 56 54 54 51 51 49 47 45 45 45 44 42
67 65 64 71 71 74 77 79 80 78 77 77 78 75 76 76 74 71 70 69 69 65 64 64 65 63 62 62 62 62 62 60 59 57 55 55 55 53 51 50 49 48 46
71 76 75 71 67 70 72 74 76 77 75 76 76 75 74 76 75 73 73 71 70 68 68 67 66 67 66 66 67 66 65 63 63 61 60 59 59 57 56 54 52 52 51
67 69 68 75 76 75 72 71 71 71 70 71 72 74 73 72 73 71 71 70 69 69 69 69 69 70 70 70 69 70 69 68 66 65 63 62 62 61 59 58 56 54 54
60 63 62 63 68 71 72 70 68 66 67 67 68 69 69 70 72 71 70 70 69 70 69 70 71 72 72 73 73 72 70 71 70 68 66 64 62 61 60 60 58 56 55
61 62 64 66 67 72 70 69 71 69 66 65 67 68 66 65 63 64 64 64 66 69 71 71 69 67 65 67 70 68 69 66 65 66 64 63 61 59 57 58 57 56 54
69 70 68 69 69 69 70 70 68 68 67 67 67 67 66 65 64 65 65 63 62 64 65 64 64 63 59 58 61 57 60 61 59 57 58 57 55 55 55 55 55 56 55
64 65 68 71 74 76 73 70 68 71 71 70 68 68 68 65 60 61 61 56 56 59 59 59 60 56 59 59 56 55 56 55 50 55 52 51 50 51 52 53 54 54 55
62 64 65 68 74 75 72 69 69 71 74 74 71 70 72 71 66 64 61 55 56 57 58 56 56 57 60 59 62 69 68 63 57 56 54 54 54 53 52 52 56 53 52
60 61 60 60 64 69 73 72 73 70 72 77 73 71 73 69 69 69 67 61 57 58 60 56 63 67 60 56 57 64 67 67 63 63 58 59 59 56 56 53 51 48 49
67 70 69 66 63 62 62 65 69 72 73 75 72 75 78 79 73 71 72 66 65 65 59 59 59 67 63 57 51 53 53 55 54 62 62 58 57 57 56 56 49 50 50
49 52 57 65 69 71 69 64 63 63 65 67 71 74 75 77 79 77 75 76 73 70 65 62 58 59 57 51 50 51 50 51 51 51 53 54 55 55 57 57 53 52 48
52 51 50 51 53 56 62 66 70 69 65 66 68 72 75 75 76 78 79 77 75 72 67 65 63 62 58 56 54 53 54 56 56 53 54 52 50 51 51 51 52 50 49
53 54 54 53 52 51 51 52 55 60 67 74 72 70 70 70 75 77 77 75 74 72 72 70 69 67 65 64 62 55 53 49 54 61 55 54 53 50 49 48 49 49 48
53 53 53 54 54 54 54 52 53 54 55 58 63 71 75 76 75 74 75 75 74 74 75 76 74 71 69 66 65 60 60 57 51 55 60 52 52 50 47 50 46 51 51
Wind_Direction
225 225 225 226 228 229 230 232 233 235 236 238 240 242 244 245 247 249 251 254 257 261 264 267 272 276 279 279 281 284 284 283 283 278 277 277 277 276 274 275 278 281 282
227 227 228 229 229 229 230 231 233 235 237 238 239 241 244 245 247 249 251 253 256 259 264 267 271 274 275 276 280 282 283 283 281 278 278 276 276 274 271 272 275 276 278
226 227 228 229 230 231 232 233 234 236 238 239 241 241 243 245 247 249 251 254 256 259 262 266 269 272 274 276 278 279 281 281 280 276 274 276 277 273 271 272 273 275 277
227 228 229 229 230 231 232 234 235 237 239 240 242 244 245 247 248 250 252 254 257 260 264 266 267 269 272 276 277 276 277 278 277 275 274 272 273 273 270 270 272 277 280
227 229 231 231 232 233 233 235 236 238 239 242 244 245 246 248 250 252 253 255 257 260 263 265 265 267 273 275 275 273 273 274 275 274 273 270 269 269 270 270 271 274 278
228 229 231 232 234 235 235 236 237 238 240 241 244 246 247 249 252 254 256 259 261 261 262 263 265 270 274 274 273 271 270 271 272 272 271 270 270 267 267 270 272 272 273
226 229 232 233 234 236 237 238 239 240 241 243 244 247 249 251 253 255 258 259 260 260 259 262 266 270 270 270 270 270 269 269 269 269 268 266 266 267 267 267 269 270 273
234 235 232 231 234 237 238 239 241 242 243 244 246 248 250 251 253 255 256 257 258 259 259 262 267 267 266 267 267 268 267 268 267 267 266 262 262 265 266 268 270 272 273
232 234 236 239 239 238 237 238 240 242 244 246 247 248 250 252 252 254 255 257 256 257 260 263 265 264 265 265 264 265 266 266 267 265 265 264 262 262 265 267 270 272 273
234 235 236 237 237 238 240 242 243 244 244 246 247 248 249 251 252 254 255 256 259 260 261 262 262 262 262 263 264 264 264 264 264 265 265 265 264 264 266 268 267 268 272
234 235 236 237 238 238 239 240 242 244 247 249 249 250 251 252 253 255 256 257 257 258 259 259 259 260 261 262 262 263 264 264 264 263 264 264 264 265 266 267 268 268 270
234 234 235 236 236 237 239 241 242 244 246 248 250 252 253 254 255 256 257 258 259 259 259 260 260 260 261 261 262 263 263 264 263 262 263 263 264 264 264 264 266 268 270
233 233 238 239 238 239 241 242 244 245 247 249 251 251 253 255 255 255 256 257 258 259 259 260 260 260 260 261 262 262 263 263 263 263 264 263 263 263 263 265 266 267 268
237 237 237 241 238 236 244 242 242 242 243 245 248 250 251 253 254 254 256 256 257 257 257 258 258 259 259 259 261 261 262 263 263 263 263 262 263 264 264 264 264 266 267
234 236 238 238 239 241 236 236 236 239 242 245 247 248 249 250 251 251 252 253 252 253 253 253 254 257 258 258 258 259 260 261 262 262 263 263 263 263 264 264 264 265 266
232 232 235 238 238 236 236 237 240 243 245 247 249 251 251 250 251 251 250 249 249 250 250 251 252 253 254 255 255 257 258 259 261 261 262 262 263 264 264 264 265 264 264
237 239 238 240 239 238 239 240 241 241 242 246 250 251 248 248 249 249 249 249 250 249 249 250 250 252 253 254 255 255 256 257 258 259 260 261 262 262 262 263 263 263 262
251 250 247 243 242 243 240 238 239 240 243 248 249 244 244 247 250 251 251 252 252 253 252 251 251 247 249 244 253 254 256 256 256 254 259 260 260 261 261 261 261 262 263
237 241 246 248 244 243 242 242 241 243 246 247 247 245 246 247 249 251 250 252 257 260 258 254 253 244 246 245 246 239 246 248 250 256 257 258 256 258 260 260 260 260 262
237 235 235 237 241 242 239 238 240 242 243 244 245 247 248 247 249 249 251 251 255 256 255 250 238 242 246 245 241 239 247 247 247 251 253 252 253 258 263 261 260 260 259
239 237 235 234 234 234 239 239 239 242 242 241 243 246 244 244 245 246 249 250 251 254 249 245 238 240 240 241 249 249 254 253 256 255 259 261 261 259 251 255 258 257 257
249 245 243 241 240 237 235 235 237 237 241 241 241 245 246 246 244 245 247 249 251 251 251 247 242 245 250 252 253 257 259 260 262 256 256 258 256 253 256 256 257 251 252
249 249 249 250 250 248 246 243 239 237 237 238 240 240 240 242 244 245 245 245 247 247 244 245 245 246 246 248 253 257 256 255 252 256 257 254 255 254 256 257 254 253 253
247 248 248 248 246 245 247 248 246 244 241 239 236 237 238 237 240 242 242 240 241 241 242 243 241 241 246 249 251 252 255 255 252 256 255 256 251 250 250 250 249 249 246
248 247 247 247 247 247 245 243 243 244 246 246 243 241 240 238 238 238 238 240 241 244 244 243 244 243 242 243 246 248 253 259 256 254 255 251 248 250 252 248 248 247 245
247 248 248 247 246 246 246 246 246 243 242 243 244 246 247 245 243 242 241 241 241 244 246 247 248 245 243 243 245 247 248 251 256 258 252 250 250 249 254 253 250 244 244